Location: Bílinka
(49.3579°N, 14.3767°E)
Time: 07:10:01
(UTC+00:00)

PSLV R/B - Pass Details

Date: 27 April 2024
Orbit: 467 x 522 km, 97.7° (Epoch: 20 May)

Event Time Altitude Azimuth Distance (km) Brightness Sun altitude
Rises 19:04:35 0° 173° (S) 2,629 6.9 -8.1°
Reaches altitude 10° 19:06:41 10° 177° (S) 1,754 6.0 -8.4°
Maximum altitude 19:10:26 61° 259° (WSW) 603 4.3 -8.9°
Drops below altitude 10° 19:14:15 10° 340° (NNW) 1,786 7.3 -9.4°
Sets 19:16:25 0° 344° (NNW) 2,682 8.2 -9.7°
